Miscellaneous Local Product
Issued by NWS Hastings, NE

Home | Current Version | Previous Version | Text Only | Print | Product List | Glossary Off
Versions: 1 2 3 4 5 6 7 8 9 10 11 12 13 14 15 16 17 18 19 20 21 22 23 24 25 26 27 28 29 30 31 32 33 34 35 36 37 38 39 40 41 42 43 44 45 46 47 48 49 50

000
AXUS43 KGID 200902
MISGRI

GID CWA HOURLY WEATHER ROUNDUP
NATIONAL WEATHER SERVICE HASTINGS NE
400 AM CDT THU JUL 20 2017

NOTE: "FAIR" INDICATES FEW OR NO CLOUDS BELOW 12,000 FEET WITH NO
SIGNIFICANT WEATHER AND/OR OBSTRUCTIONS TO VISIBILITY.

...SOUTH CENTRAL NEBRASKA...

CITY           SKY/WX    TMP DP  RH WIND       PRES   REMARKS
GRAND ISLAND   CLOUDY    75  69  81 N5        30.00F
HASTINGS       CLOUDY    71  65  81 NE7       30.01R
KEARNEY        CLOUDY    81  62  52 VRB6      30.01R
ORD            CLOUDY    73  66  78 SW5       30.01F
YORK           PTCLDY    73  68  83 CALM      30.01S
AURORA         MOCLDY    74  68  83 E3        30.01S
LEXINGTON      PTCLDY    73  65  75 E6        30.01S
HOLDREGE       CLOUDY    75  61  60 S7        29.99S
HEBRON         CLOUDY    79  67  66 S7        29.99R

...NEBRASKA PANHANDLE...

CITY           SKY/WX    TMP DP  RH WIND       PRES   REMARKS
CHADRON        LGT RAIN  68  65  90 SE3       30.07F
ALLIANCE       CLOUDY    67  63  87 VRB3      30.10R
SCOTTSBLUFF    CLOUDY    69  63  81 S7        30.10F
SIDNEY         PTCLDY    68  63  84 N13       30.15R

...WESTERN AND NORTH CENTRAL NEBRASKA...

CITY           SKY/WX    TMP DP  RH WIND       PRES   REMARKS
VALENTINE      CLOUDY    78  63  59 W13       30.05R
AINSWORTH      CLOUDY    76  62  62 W15G21    30.05S
ONEILL         CLOUDY    77  65  66 N17       29.99R
BROKEN BOW     CLOUDY    77  62  59 NE10      30.03F
IMPERIAL       CLEAR     70  60  70 E5        30.00R
NORTH PLATTE   CLOUDY    76  66  71 NE14      30.02R
MCCOOK         CLOUDY    75  59  57 CALM      29.97F

...EASTERN NEBRASKA...

CITY           SKY/WX    TMP DP  RH WIND       PRES   REMARKS
NORFOLK        CLOUDY    82  63  52 S16       29.90F
SO SIOUX CITY  MOCLDY    85  73  67 N10       29.89R HX  91
TEKAMAH        CLOUDY    81  69  67 SE5       29.91R
COLUMBUS       CLOUDY    80  69  69 S12       29.95F
ALBION         MOCLDY    76  67  75 NW9       29.99R
OMAHA EPPLEY   MOCLDY    83  69  62 VRB6      29.95R
OFFUTT AFB     CLOUDY    79  69  71 W3        29.95R
MILLARD        MOCLDY    83  72  69 SW5       29.95F
LINCOLN        CLOUDY    82  69  64 W9        29.98R
NEBRASKA CITY  CLOUDY    78  73  85 SW9       29.97R
BEATRICE       PTCLDY    80  68  67 S6        29.99R
FALLS CITY     CLEAR     78  71  79 S10       29.97

...NORTHERN KANSAS...

CITY           SKY/WX    TMP DP  RH WIND       PRES   REMARKS
GOODLAND       PTCLDY    73  58  59 S13       30.02F
HILL CITY      CLEAR     80  62  54 SW7       29.99S
NORTON         SUNNY     75  55  50 S9        29.98S
PHILLIPSBURG   CLEAR     81  61  50 S8        29.97F
SMITH CENTER   CLEAR     73  63  68 E6        29.99S
HAYS           HAZE      79  64  60 S10       30.00F VSB 1
RUSSELL        CLEAR     80  64  58 S15       29.99R
CONCORDIA      CLEAR     79  66  64 S16G24    29.98S
SALINA         CLEAR     82  66  58 S12       29.99S
TOPEKA         CLEAR     81  72  74 S6        29.99F



USA.gov is the U.S. government's official web portal to all federal, state and local government web resources and services.